Content
SEND FEEDBACK

Daily
Averages
Monthly
Summary
Brazil

ALCOBACO, SÃO PAULO


Home > South America > Brazil > São Paulo
Elevation: 2598 feet     Latitude: 23 30S     Longitude: 046 37W

WEATHER
 
SELECT A DAY
Number of Records: 63,359;   Date Range: 7/1/96 - 7/27/14
 
SHARE

PRINT THIS DATA

[ ← Previous Day ]
WEATHER ALMANAC - JANUARY 31, 2013
[ Next Day → ]
[ °C ]   °F
Weather ElementAverageHighLow
Temperature75.6 °F84.2 °F (3:00 pm)69.8 °F (6:40 am)
Dewpoint66.8 °F68 °F (1:00 pm)64.4 °F (6:40 am)
Humidity74.9 %88 % (9:00 pm)58 % (3:00 pm)
Barometer30.00 in30.04 in (8:35 am)29.92 in (6:00 pm)
Wind Speed5.1 mph10.4 mph (7:00 pm)
Weather ElementAverage
Visibility4.3 mi
Wind DirectionSSE (152.5 °)

Weather ElementTotal
Precipitation---
Cooling Degree Days12 (Base 65)
Growing Degree Days27 (Base 50)
Averaged from 20 records on January 31, 2013
WEATHER CONDITIONS BREAKOUT
WIND DIRECTION BREAKOUT
WEATHER BY HOUR - JANUARY 31, 2013
[ °C ]   °F
Local TimeTemperatureDewpointHumidityBarometerVisibilityWind DirectionWind SpeedGust SpeedPrecipitationEventsConditions
6:40 AM69.8 °F64.4 °F83 %30.01 in3.1 miSE (130°)3.5 mphMostly Cloudy
7:00 AM69.8 °F64.4 °F83 %30.01 in3.1 miSE (130°)4.6 mphMostly Cloudy
8:00 AM69.8 °F64.4 °F83 %30.01 in3.1 miESE (110°)4.6 mphMostly Cloudy
8:35 AM71.6 °F64.4 °F78 %30.04 in3.1 miESE (120°)4.6 mphHaze
9:00 AM71.6 °F64.4 °F78 %30.04 in5.0 miEast (90°)5.8 mphScattered Clouds
10:00 AM73.4 °F66.2 °F78 %30.04 in5.0 miESE (120°)4.6 mphMostly Cloudy
11:00 AM77.0 °F66.2 °F69 %30.04 in6.2 miEast (80°)3.5 mphMostly Cloudy
12:00 PM77.0 °F66.2 °F69 %30.04 in6.2 miSE (140°)4.6 mphMostly Cloudy
1:00 PM78.8 °F68.0 °F69 %30.04 in6.2 miEast (80°)2.3 mphMostly Cloudy
2:00 PM82.4 °F68.0 °F62 %30.01 in6.2 miNNE (20°)4.6 mphMostly Cloudy
3:00 PM84.2 °F68.0 °F58 %29.98 in6.2 miNE (40°)6.9 mphMostly Cloudy
4:00 PM82.4 °F68.0 °F62 %29.95 in6.2 miNNW (330°)5.8 mphMostly Cloudy
5:00 PM82.4 °F68.0 °F62 %29.95 in6.2 miNorth (360°)3.5 mphMostly Cloudy
6:00 PM80.6 °F68.0 °F65 %29.92 in4.3 miSSW (200°)8.1 mphMostly Cloudy
7:00 PM75.2 °F68.0 °F78 %29.95 in3.1 miSSW (210°)10.4 mphHaze
8:00 PM73.4 °F68.0 °F83 %29.98 in3.1 miSouth (190°)6.9 mphOvercast
9:00 PM71.6 °F68.0 °F88 %30.01 in3.1 miSSW (200°)6.9 mphOvercast
9:25 PM73.4 °F68.0 °F83 %30.01 in1.9 miSouth (170°)3.5 mphRainLight Rain
10:00 PM73.4 °F68.0 °F83 %30.01 in1.9 miSouth (180°)3.5 mphRainLight Rain
11:00 PM73.4 °F68.0 °F83 %30.04 in3.1 miSSE (150°)4.6 mphMostly Cloudy
Hourly data recorded from SBMT, located miles away from Alcobaco, São Paulo







STORIES FROM OUR PARTNERS